カタログに戻る

CZ-6A DEB

運用中PO
NORAD 60900·DEBRIS·🇨🇳 China

打ち上げ Aug 6, 2024 から Taiyuan Satellite Launch Center

Loading…

次のパス (今後24時間)

TLE

最新Source: Space-Track

元期: Sep 14, 2026, 10:33 UTC

1 60900U 24140LF  26257.44004560  .00000196  00000-0  75572-4 0  9997
2 60900  88.9114 255.9774 0016465 185.1812 174.9214 14.26195440107872

AllMySatでCZ-6A DEBをリアルタイム追跡

Download on the App Store